Punta Gorda, FL

10:45 PM EDT on October 18, 2017 (GMT -0400)
Charlotte County

Weather History for KPGD - May, 2014

Change the Weather History Date:

Sunday, May 4, 2014

  Actual Average Record
Temperature  
Mean Temperature 73 °F -  
Max Temperature 84 °F 85 °F 93 °F (2007)
Min Temperature 62 °F 61 °F 55 °F (2015)
Cooling Degree Days 8    
Growing Degree Days 23 (Base 50)    
Moisture  
Dew Point 58 °F    
Average Humidity 65    
Maximum Humidity 87    
Minimum Humidity 33    
Precipitation  
Precipitation 0.00 in - - ()
Sea Level Pressure  
Sea Level Pressure 30.07 in    
Wind  
Wind Speed 11 mph (NNE)    
Max Wind Speed 17 mph    
Max Gust Speed 22 mph    
Visibility 10 miles    
Events      
Averages and records for this station are not official NWS values.
T = Trace of Precipitation, MM = Missing Value Source: NWS Daily Summary

Daily Weather History Graph

Daily Weather History Graph

Search for Another Location

Airport or City:

Trip Planner

Search our weather history database for the weather conditions in past years. The results will help you decide how hot, cold, wet, or windy it might be!

Date:

Astronomy

May. 04, 2014 Rise Set
Actual Time 6:47 AM EDT 8:02 PM EDT
Civil Twilight 6:22 AM EDT 8:27 PM EDT
Nautical Twilight 5:53 AM EDT 8:56 PM EDT
Astronomical Twilight 5:23 AM EDT 9:26 PM EDT
Moon 11:12 AM EDT (5/4) 12:04 AM EDT (5/4)
Length of Visible Light 14h 04m
Length of Day
13h 15m
Waxing Crescent, 27% of the Moon is Illuminated
May 4
Waxing Crescent
May 6
First Quarter
May 14
Full
May 21
Last Quarter
May 28
New

Hourly Weather History & Observations

Time (EDT) Temp. Heat Index Dew Point Humidity Pressure Visibility Wind Dir Wind Speed Gust Speed Precip Events Conditions
12:53 AM 66.9 °F - 63.0 °F 87% 30.06 in 10.0 mi North 15.0 mph - N/A   Overcast
1:07 AM 66.9 °F - 63.0 °F 87% 30.06 in 10.0 mi North 15.0 mph - N/A   Overcast
1:41 AM 66.9 °F - 63.0 °F 87% 30.06 in 10.0 mi North 12.7 mph - N/A   Overcast
1:53 AM 66.9 °F - 62.1 °F 84% 30.06 in 10.0 mi North 11.5 mph 20.7 mph N/A   Overcast
2:26 AM 66.9 °F - 63.0 °F 87% 30.05 in 10.0 mi North 8.1 mph - N/A   Overcast
2:53 AM 66.0 °F - 62.1 °F 87% 30.05 in 10.0 mi North 6.9 mph - N/A   Scattered Clouds
3:53 AM 64.9 °F - 61.0 °F 87% 30.06 in 10.0 mi North 8.1 mph - N/A   Clear
4:53 AM 63.0 °F - 59.0 °F 87% 30.06 in 10.0 mi North 5.8 mph - N/A   Clear
5:53 AM 62.1 °F - 57.9 °F 86% 30.08 in 10.0 mi North 5.8 mph - N/A   Clear
6:53 AM 62.1 °F - 57.9 °F 86% 30.09 in 10.0 mi North 8.1 mph - N/A   Clear
7:53 AM 64.9 °F - 59.0 °F 81% 30.11 in 10.0 mi North 8.1 mph - N/A   Clear
8:53 AM 70.0 °F - 59.0 °F 68% 30.12 in 10.0 mi North 11.5 mph - N/A   Clear
9:53 AM 75.0 °F - 55.9 °F 51% 30.13 in 10.0 mi North 13.8 mph 19.6 mph N/A   Clear
10:53 AM 77.0 °F - 53.1 °F 43% 30.13 in 10.0 mi North 15.0 mph - N/A   Clear
11:53 AM 79.0 °F - 52.0 °F 39% 30.12 in 10.0 mi NNE 17.3 mph - N/A   Clear
12:53 PM 80.1 °F 79.9 °F 53.1 °F 39% 30.11 in 10.0 mi North 13.8 mph - N/A   Clear
1:53 PM 82.0 °F - 52.0 °F 35% 30.09 in 10.0 mi NNE 12.7 mph 21.9 mph N/A   Clear
2:53 PM 82.9 °F 81.8 °F 53.1 °F 36% 30.06 in 10.0 mi NE 9.2 mph - N/A   Clear
3:53 PM 84.0 °F - 52.0 °F 33% 30.04 in 10.0 mi NE 9.2 mph 19.6 mph N/A   Clear
4:53 PM 84.0 °F - 52.0 °F 33% 30.03 in 10.0 mi NNE 11.5 mph 17.3 mph N/A   Clear
5:53 PM 84.0 °F - 52.0 °F 33% 30.03 in 10.0 mi NNE 10.4 mph - N/A   Clear
6:53 PM 82.9 °F - 52.0 °F 34% 30.03 in 10.0 mi NNE 9.2 mph - N/A   Clear
7:53 PM 77.0 °F - 59.0 °F 54% 30.04 in 10.0 mi NE 4.6 mph - N/A   Clear
8:53 PM 71.1 °F - 61.0 °F 70% 30.06 in 10.0 mi NNE 3.5 mph - N/A   Clear
9:53 PM 69.1 °F - 62.1 °F 78% 30.08 in 10.0 mi Calm Calm - N/A   Clear
10:53 PM 66.0 °F - 60.1 °F 81% 30.09 in 10.0 mi East 5.8 mph - N/A   Clear
11:53 PM 66.9 °F - 57.9 °F 73% 30.10 in 10.0 mi East 5.8 mph - N/A   Clear